EN

Hourly Weather Biecz

Today, 1 December, Tuesday

Time Temperature Precipitation Wind Pressure Humidity
00:00 -3°C° 0 mm 2 mps 744 mmHg 86%
01:00 -5°C° 0 mm 2 mps 743 mmHg 91%
02:00 -5°C° 0 mm 2 mps 743 mmHg 91%
03:00 -5°C° 0 mm 2 mps 743 mmHg 91%
04:00 -5°C° 0 mm 2 mps 743 mmHg 91%
05:00 -6°C° 0 mm 3 mps 743 mmHg 91%
06:00 -6°C° 0 mm 3 mps 743 mmHg 91%
07:00 -6°C° 0 mm 3 mps 743 mmHg 91%
08:00 -5°C° 0 mm 3 mps 743 mmHg 86%
09:00 -4°C° 0 mm 4 mps 743 mmHg 82%
10:00 -3°C° 0 mm 4 mps 743 mmHg 77%
11:00 -2°C° 0 mm 4 mps 743 mmHg 75%
12:00 -2°C° 0 mm 4 mps 742 mmHg 73%
13:00 -1°C° 0 mm 4 mps 742 mmHg 71%
14:00 -1°C° 0 mm 3 mps 742 mmHg 76%
15:00 -2°C° 0 mm 3 mps 742 mmHg 81%
16:00 -4°C° 0 mm 3 mps 742 mmHg 85%
17:00 -4°C° 0 mm 2 mps 742 mmHg 86%
18:00 -4°C° 0 mm 2 mps 742 mmHg 88%
19:00 -4°C° 0 mm 2 mps 742 mmHg 89%
20:00 -5°C° 0 mm 2 mps 743 mmHg 89%
21:00 -5°C° 0 mm 2 mps 743 mmHg 88%
22:00 -3°C° 0 mm 1 mps 743 mmHg 88%
23:00 -3°C° 0 mm 1 mps 743 mmHg 87%

Tomorrow, 2 December, Wednesday

Time Temperature Precipitation Wind Pressure Humidity
00:00 -3°C° 0 mm 1 mps 743 mmHg 86%
01:00 -3°C° 0 mm 1 mps 743 mmHg 85%
02:00 -3°C° 0 mm 1 mps 743 mmHg 84%
03:00 -3°C° 0 mm 1 mps 743 mmHg 83%
04:00 -4°C° 0 mm 0 mps 742 mmHg 82%
05:00 -3°C° 0 mm 1 mps 742 mmHg 81%
06:00 -4°C° 0 mm 1 mps 743 mmHg 80%
07:00 -4°C° 0 mm 1 mps 743 mmHg 79%
08:00 -3°C° 0 mm 1 mps 742 mmHg 74%
09:00 -1°C° 0 mm 1 mps 742 mmHg 69%
10:00 0°C° 0 mm 1 mps 742 mmHg 64%
11:00 0°C° 0 mm 1 mps 742 mmHg 63%
12:00 +1°C° 0 mm 1 mps 742 mmHg 62%
13:00 +1°C° 0 mm 2 mps 741 mmHg 61%
14:00 -2°C° 0 mm 2 mps 741 mmHg 67%
15:00 -3°C° 0 mm 2 mps 741 mmHg 73%
16:00 -4°C° 0 mm 2 mps 740 mmHg 78%
17:00 -4°C° 0 mm 2 mps 740 mmHg 77%
18:00 -4°C° 0 mm 2 mps 740 mmHg 76%
19:00 -4°C° 0 mm 2 mps 740 mmHg 74%
20:00 -4°C° 0 mm 2 mps 740 mmHg 72%
21:00 -4°C° 0 mm 2 mps 740 mmHg 71%
22:00 -4°C° 0 mm 2 mps 739 mmHg 69%
23:00 -5°C° 0 mm 3 mps 739 mmHg 67%

Day after tomorrow, 3 December, Thursday

Time Temperature Precipitation Wind Pressure Humidity
00:00 -4°C° 0 mm 3 mps 739 mmHg 66%
01:00 -4°C° 0 mm 3 mps 738 mmHg 64%
02:00 -4°C° 0 mm 3 mps 738 mmHg 65%
03:00 -5°C° 0 mm 3 mps 738 mmHg 65%
04:00 -5°C° 0 mm 3 mps 738 mmHg 66%
05:00 -5°C° 0 mm 3 mps 737 mmHg 65%
06:00 -4°C° 0 mm 3 mps 737 mmHg 65%
07:00 -4°C° 0 mm 3 mps 737 mmHg 65%
08:00 -3°C° 0 mm 4 mps 737 mmHg 62%
09:00 -2°C° 0 mm 4 mps 736 mmHg 59%
10:00 -1°C° 0 mm 4 mps 736 mmHg 56%
11:00 0°C° 0 mm 4 mps 736 mmHg 56%
12:00 +1°C° 0 mm 4 mps 735 mmHg 56%
13:00 +1°C° 0 mm 4 mps 735 mmHg 56%
14:00 +1°C° 0 mm 4 mps 734 mmHg 57%
15:00 0°C° 0 mm 4 mps 734 mmHg 59%
16:00 -1°C° 0 mm 4 mps 734 mmHg 60%
17:00 -1°C° 0 mm 4 mps 733 mmHg 60%
18:00 -1°C° 0 mm 4 mps 733 mmHg 60%
19:00 -1°C° 0 mm 4 mps 733 mmHg 60%
20:00 -1°C° 0 mm 4 mps 733 mmHg 60%
21:00 -1°C° 0 mm 4 mps 733 mmHg 60%
22:00 0°C° 0 mm 4 mps 732 mmHg 59%
23:00 0°C° 0 mm 4 mps 732 mmHg 59%

4 December, Friday

Time Temperature Precipitation Wind Pressure Humidity
00:00 0°C° 0 mm 5 mps 732 mmHg 59%
01:00 0°C° 0 mm 5 mps 732 mmHg 59%
02:00 0°C° 0 mm 5 mps 731 mmHg 60%
03:00 0°C° 0 mm 4 mps 731 mmHg 61%
04:00 0°C° 0 mm 4 mps 730 mmHg 62%
05:00 0°C° 0 mm 4 mps 730 mmHg 62%
06:00 0°C° 0 mm 4 mps 730 mmHg 62%
07:00 0°C° 0 mm 4 mps 730 mmHg 62%
08:00 +1°C° 0 mm 4 mps 730 mmHg 63%
09:00 +2°C° 0 mm 5 mps 729 mmHg 64%
10:00 +2°C° 0 mm 5 mps 729 mmHg 65%
11:00 +3°C° 0 mm 5 mps 729 mmHg 67%
12:00 +3°C° 0 mm 5 mps 729 mmHg 68%
13:00 +5°C° 0 mm 5 mps 728 mmHg 69%
14:00 +3°C° 0 mm 5 mps 728 mmHg 73%
15:00 +3°C° 0 mm 5 mps 728 mmHg 78%
16:00 +2°C° 0 mm 5 mps 728 mmHg 82%
17:00 +3°C° 0 mm 5 mps 728 mmHg 82%
18:00 +3°C° 0 mm 5 mps 729 mmHg 82%
19:00 +3°C° 0 mm 5 mps 729 mmHg 82%
20:00 +5°C° 0 mm 5 mps 729 mmHg 83%
21:00 +5°C° 0 mm 5 mps 729 mmHg 85%
22:00 +5°C° 0 mm 5 mps 729 mmHg 86%
23:00 +3°C° 0 mm 5 mps 729 mmHg 87%

5 December, Saturday

Time Temperature Precipitation Wind Pressure Humidity
00:00 +3°C° 0 mm 6 mps 730 mmHg 87%
01:00 +3°C° 0 mm 6 mps 730 mmHg 88%
02:00 +2°C° 0 mm 5 mps 730 mmHg 87%
03:00 +2°C° 0 mm 5 mps 730 mmHg 87%
04:00 +2°C° 0 mm 5 mps 730 mmHg 87%
05:00 +2°C° 0 mm 5 mps 731 mmHg 86%
06:00 +2°C° 0 mm 5 mps 731 mmHg 86%
07:00 +2°C° 0 mm 5 mps 731 mmHg 86%
08:00 +3°C° 0 mm 5 mps 731 mmHg 84%
09:00 +4°C° 0 mm 6 mps 731 mmHg 83%
10:00 +4°C° 0 mm 6 mps 732 mmHg 81%
11:00 +5°C° 0 mm 6 mps 732 mmHg 80%
12:00 +5°C° 0 mm 6 mps 731 mmHg 78%
13:00 +7°C° 0 mm 6 mps 731 mmHg 77%
14:00 +6°C° 0 mm 5 mps 731 mmHg 80%
15:00 +5°C° 0 mm 5 mps 731 mmHg 83%
16:00 +5°C° 0 mm 4 mps 731 mmHg 86%
17:00 +5°C° 0 mm 4 mps 731 mmHg 85%
18:00 +5°C° 0 mm 4 mps 731 mmHg 84%
19:00 +4°C° 0 mm 4 mps 731 mmHg 83%
20:00 +4°C° 0 mm 4 mps 731 mmHg 83%
21:00 +5°C° 0 mm 4 mps 731 mmHg 82%
22:00 +5°C° 0 mm 5 mps 730 mmHg 82%
23:00 +5°C° 0 mm 5 mps 730 mmHg 81%

6 December, Sunday

Time Temperature Precipitation Wind Pressure Humidity
00:00 +5°C° 0 mm 5 mps 730 mmHg 81%
01:00 +5°C° 0 mm 5 mps 730 mmHg 81%
02:00 +5°C° 0 mm 5 mps 729 mmHg 82%
03:00 +5°C° 0 mm 5 mps 729 mmHg 82%
04:00 +4°C° 0 mm 4 mps 728 mmHg 82%
05:00 +3°C° 0 mm 5 mps 728 mmHg 82%
06:00 +5°C° 0 mm 5 mps 728 mmHg 83%
07:00 +5°C° 0 mm 5 mps 728 mmHg 83%
08:00 +6°C° 0 mm 5 mps 728 mmHg 82%
09:00 +7°C° 0 mm 6 mps 729 mmHg 82%
10:00 +7°C° 0 mm 6 mps 729 mmHg 81%
11:00 +8°C° 0.1 mm 6 mps 729 mmHg 81%
12:00 +8°C° 0.1 mm 6 mps 729 mmHg 81%
13:00 +9°C° 0.1 mm 6 mps 730 mmHg 81%
14:00 +8°C° 0 mm 5 mps 730 mmHg 83%
15:00 +8°C° 0 mm 5 mps 730 mmHg 85%
16:00 +7°C° 0 mm 4 mps 731 mmHg 87%
17:00 +7°C° 0 mm 4 mps 731 mmHg 87%
18:00 +7°C° 0 mm 4 mps 731 mmHg 88%
19:00 +7°C° 0 mm 4 mps 732 mmHg 89%
20:00 +7°C° 0 mm 3 mps 732 mmHg 89%
21:00 +7°C° 0 mm 3 mps 732 mmHg 90%
22:00 +7°C° 0 mm 3 mps 733 mmHg 91%
23:00 +7°C° 0 mm 3 mps 733 mmHg 91%
Show more

We Need Your Consent

Meteoprog and our Service Providers may store and access personal data such as cookies, device identifiers or other similar technologies on your device and process such data to personalise content and ads, as well as provide social media features and to analyse the traffic.

  • Store and/or access information on your device

    Cookies, device identifiers or other information can be stored or accessed on your device for the purposes indicated above.

  • Personalised ads and content, ad and content measurement, audience insights, and products development

    Ads and content can be personalised based on a profile. More data can be added to better personalise ads and content. Ad and content performance can be measured. Insights about the audience who saw the ads and content can be derived. Such data can be used to develop or improve user’s experience, systems and software.

By clicking ‘I Agree’ you will allow the use of indicated cookies, device identifiers, web beacons or other similar technologies. Your settings can be changed in the browser on your device.

For certain purposes, legitimate interests may be relied on, rather than consent. You can read more about this in our Privacy and Cookie Policy.